Regional Weather Roundup
Issued by NWS

Home | Current Version | Previous Version | Graphics & Text | Print | Product List | Glossary On
Versions: 1 2 3 4 5 6 7 8 9 10 11 12 13 14 15 16 17 18 19 20 21 22 23 24 25 26 27 28 29 30 31 32 33 34 35 36 37 38 39 40 41 42 43 44 45 46 47 48 49 50
000
ASUS43 KFSD 060902
RWRSD

WEATHER ROUNDUP FOR SOUTH DAKOTA
NATIONAL WEATHER SERVICE SIOUX FALLS SD
300 AM CST SAT FEB 06 2016

NOTE: "FAIR" INDICATES FEW OR NO CLOUDS BELOW 12,000 FEET WITH NO
SIGNIFICANT WEATHER AND/OR OBSTRUCTIONS TO VISIBILITY.


SDZ001>005-009-010-012>017-061000-
NORTHWEST AND NORTH CENTRAL SOUTH DAKOTA

CITY           SKY/WX    TMP DP  RH WIND       PRES   REMARKS
BUFFALO          N/A     29  20  69 W12       29.94F WCI  19
FAITH            N/A     29  19  66 SW14      30.03F WCI  18
MOBRIDGE       CLEAR     28  22  78 SE7       29.99F WCI  21
$$

SDZ012>016-024>037-041>051-057-063-072>074-061000-
SOUTHWEST AND SOUTH CENTRAL SOUTH DAKOTA

CITY           SKY/WX    TMP DP  RH WIND       PRES   REMARKS
RAPID CTY ARPT CLOUDY    26  16  65 S3        30.08F
PIERRE         CLEAR     28  22  78 SW10      30.08F WCI  19
CUSTER         CLOUDY    26  10  50 W6        30.07F WCI  19
ELLSWORTH AFB  CLOUDY    30  18  61 SW7       30.06F WCI  23
PHILIP         CLOUDY    26  21  81 W9        30.10F WCI  17
PINE RIDGE     CLOUDY    26  14  60 W12       30.16S WCI  16
WINNER         FAIR      28  18  66 SW10      30.13F WCI  19
$$

SDZ004>011-016>023-039-040-061000-
NORTHEAST SOUTH DAKOTA

CITY           SKY/WX    TMP DP  RH WIND       PRES   REMARKS
ABERDEEN       CLOUDY    23  19  85 S8        30.05F WCI  14
WATERTOWN      CLOUDY    15  11  83 S7        30.08F WCI   5
BROOKINGS      CLOUDY    17  15  92 S5        30.12F WCI  10
SISSETON         N/A     28  21  75 W17       30.04F WCI  16
$$

SDZ017-020-022-023-036>040-048>070-061000-
SOUTHEAST SOUTH DAKOTA

CITY           SKY/WX    TMP DP  RH WIND       PRES   REMARKS
SIOUX FALLS    FOG       23  21  92 CALM      30.17S VSB 1/4
HURON          CLOUDY    24  20  84 S8        30.11F WCI  15
MITCHELL       CLEAR     26  22  84 SW9       30.16F WCI  17
YANKTON        CLEAR     21  18  86 SW7       30.21S WCI  13
$$

ABBREVIATIONS USED IN REMARKS
   TC - TEMPERATURE IN CELSIUS
  WCI - WIND CHILL INDEX
   HX - HEAT INDEX
  VSB - VISIBILITY




USA.gov is the U.S. government's official web portal to all federal, state and local government web resources and services.